GW1509 Weather Reports


time (UTC)temp
C
wind
direction
speed
KPH
gust
KPH
rain 1hr
cm
rain 24hr
cm
rain mn
cm
humidity
%
barometer
mb
20260507030055 22 237 3.2 9.7 0.00 0.00 0.00 92 1014.0
20260507024556 22 215 3.2 11.3 0.00 0.00 0.00 92 1014.2
20260507023051 22 234 6.4 17.7 0.00 0.00 0.00 92 1014.0
20260507021548 22 0 4.8 12.9 0.00 0.00 0.00 91 1013.8
20260507020103 22 236 4.8 16.1 0.00 0.00 0.00 91 1014.2
20260507014559 22 234 3.2 16.1 0.00 0.00 0.00 91 1014.4
20260507013054 22 215 3.2 17.7 0.00 0.00 0.00 91 1014.5
20260507011550 22 281 1.6 14.5 0.00 0.00 0.00 90 1014.4
20260507010109 22 248 3.2 12.9 0.00 0.00 0.00 90 1015.0
20260507004555 22 261 3.2 11.3 0.00 0.00 0.00 90 1014.7
20260507003059 22 297 4.8 12.9 0.00 0.00 0.00 90 1014.6
20260507001558 22 274 3.2 12.9 0.00 0.00 0.00 89 1014.5
20260507000057 22 223 3.2 14.5 0.00 0.00 0.00 88 1014.5
20260506234558 22 203 3.2 12.9 0.00 0.00 0.00 88 1014.7
20260506233055 22 207 4.8 14.5 0.00 0.00 0.00 88 1014.5
20260506231609 22 229 4.8 12.9 0.00 0.00 0.00 87 1014.5
20260506230116 22 279 6.4 17.7 0.00 0.00 0.00 87 1014.4
20260506224557 23 222 6.4 19.3 0.00 0.00 0.00 86 1014.5
20260506223059 23 245 8.0 16.1 0.00 0.00 0.00 84 1014.4
20260506221624 23 229 8.0 16.1 0.00 0.00 0.00 83 1014.4
20260506220120 24 225 6.4 20.9 0.00 0.00 0.00 82 1014.4
20260506214555 24 270 4.8 20.9 0.00 0.00 0.00 81 1014.2
20260506213106 24 241 8.0 20.9 0.00 0.00 0.00 81 1014.6
20260506211600 25 270 6.4 22.5 0.00 0.00 0.00 80 1014.7
20260506210055 25 215 6.4 19.3 0.00 0.00 0.00 78 1014.7
20260506204554 25 221 8.0 24.1 0.00 0.00 0.00 77 1014.9
20260506203049 25 285 8.0 24.1 0.00 0.00 0.00 78 1015.0
20260506201552 25 294 8.0 22.5 0.00 0.00 0.00 78 1015.4
20260506200055 25 236 8.0 19.3 0.00 0.00 0.00 76 1015.5
20260506194554 25 192 8.0 24.1 0.00 0.00 0.00 76 1015.5
20260506193051 25 274 9.7 24.1 0.00 0.00 0.00 76 1015.6
20260506191556 25 228 6.4 20.9 0.00 0.00 0.00 76 1015.9
20260506190056 25 238 8.0 20.9 0.00 0.00 0.00 76 1016.0
20260506184612 25 273 6.4 17.7 0.00 0.00 0.00 76 1016.4
20260506183054 25 224 8.0 19.3 0.00 0.00 0.00 76 1016.4
20260506181553 25 208 11.3 19.3 0.00 0.00 0.00 75 1016.6
20260506180052 25 227 6.4 19.3 0.00 0.00 0.00 78 1016.8
20260506174552 25 276 6.4 25.7 0.00 0.00 0.00 78 1017.0
20260506173050 25 196 6.4 16.1 0.00 0.00 0.00 78 1017.2
20260506171559 24 211 6.4 19.3 0.00 0.00 0.00 80 1017.3
20260506170057 25 242 6.4 16.1 0.00 0.00 0.00 78 1017.4
20260506164551 24 236 8.0 27.4 0.00 0.00 0.00 78 1017.4
20260506163052 25 274 6.4 17.7 0.00 0.00 0.00 78 1017.6
20260506161550 25 225 9.7 16.1 0.00 0.00 0.00 79 1017.4
20260506160101 24 267 6.4 17.7 0.00 0.00 0.00 79 1017.6
20260506154557 24 221 6.4 16.1 0.00 0.00 0.00 79 1017.7
20260506153051 24 251 6.4 20.9 0.00 0.00 0.00 81 1017.6
20260506151556 23 206 6.4 16.1 0.00 0.00 0.00 80 1017.7
20260506150055 23 222 4.8 14.5 0.00 0.00 0.00 81 1017.7
20260506144601 23 266 6.4 17.7 0.00 0.00 0.00 81 1017.4
20260506143053 23 221 8.0 19.3 0.00 0.00 0.00 79 1017.4
20260506141553 23 250 4.8 14.5 0.00 0.00 0.00 80 1017.1
20260506140052 23 201 8.0 16.1 0.00 0.00 0.00 77 1017.2
20260506134551 23 180 4.8 16.1 0.00 0.00 0.00 79 1017.1
20260506133053 23 265 8.0 17.7 0.00 0.00 0.00 79 1017.1
20260506131605 23 304 4.8 14.5 0.00 0.00 0.00 81 1017.0
20260506130052 22 217 8.0 19.3 0.00 0.00 0.00 81 1016.8
20260506124552 22 200 6.4 16.1 0.00 0.00 0.00 82 1016.6
20260506123057 22 248 4.8 17.7 0.00 0.00 0.00 84 1016.5
20260506121556 21 199 4.8 12.9 0.00 0.00 0.00 87 1016.5
20260506120053 21 281 1.6 9.7 0.00 0.00 0.00 90 1016.4
20260506114556 19 240 1.6 8.0 0.00 0.00 0.00 93 1016.3
20260506113053 18 234 1.6 6.4 0.00 0.00 0.00 93 1016.0
20260506111550 16 171 0.0 1.6 0.00 0.00 0.00 92 1016.0
20260506110052 16 0 0.0 1.6 0.00 0.00 0.00 92 1016.2
20260506104555 16 355 0.0 1.6 0.00 0.00 0.00 92 1016.0
20260506103054 16 0 0.0 0.0 0.00 0.00 0.00 91 1015.8
20260506101550 15 0 0.0 0.0 0.00 0.00 0.00 90 1015.9
20260506100104 16 0 0.0 1.6 0.00 0.00 0.00 89 1015.8
20260506094552 16 0 0.0 0.0 0.00 0.00 0.00 90 1015.8
20260506093053 17 0 0.0 0.0 0.00 0.00 0.00 89 1015.9
20260506091556 17 0 0.0 1.6 0.00 0.00 0.00 88 1016.0
20260506090050 17 0 0.0 1.6 0.00 0.00 0.00 87 1015.9
20260506084549 18 235 0.0 3.2 0.00 0.00 0.00 86 1016.0
20260506083050 19 0 0.0 4.8 0.00 0.00 0.00 85 1015.9
20260506081554 19 234 0.0 4.8 0.00 0.00 0.00 85 1015.9
20260506073055 19 240 0.0 6.4 0.00 0.00 0.00 85 1016.0
20260506071559 19 233 1.6 8.0 0.00 0.00 0.00 85 1015.7
20260506061551 18 254 1.6 6.4 0.00 0.00 0.00 85 1016.2
20260506044552 18 0 0.0 4.8 0.00 0.00 0.00 80 1016.7
20260506043047 18 207 1.6 6.4 0.00 0.00 0.00 80 1016.8
20260506041559 18 232 3.2 8.0 0.00 0.00 0.00 80 1016.9
20260506040109 18 231 3.2 6.4 0.00 0.00 0.00 79 1016.9
20260506034547 18 202 1.6 6.4 0.00 0.00 0.00 79 1016.8
20260506033050 18 241 1.6 6.4 0.00 0.00 0.00 78 1016.8
20260506031553 18 223 1.6 4.8 0.00 0.00 0.00 77 1016.7